軌道要素
Epoch 2022 Jan. 21.0 TT = JDT 2459600.5
T 2022 July 30.37635 TT Rudenko
q 1.0804713 (2000.0) P Q
z +0.0031843 Peri. 175.82226 -0.96755482 -0.18540626
+/-0.0000014 Node 348.09497 +0.20093035 -0.15276370
e 0.9965594 Incl. 56.31080 +0.15318177 -0.97071508
From 750 observations 2021 Aug. 10-2022 May 18, mean residual 0".6.
|